Search for airport 
image banner adimage banner ad
image banner ad

VICG - Chandigarh

Located in Chandigarh, India

ICAO - VICG, IATA - IXC

Data provided by Airmate  

General information

Coordinates: N30°40'24" E76°47'18"
Elevation is 1030 feet MSL.
 
Rated:
View ratings: [VIEW]


View others Airports in Chandigarh

Operational data

Open for public use
Current time UTC:
Current local time:
Weather
TAF: TAF VICG 242130Z 2500/2512 32005KT 3000 BR FEW250 BECMG 2503/05 32010KT 4000 BR SCT250 BECMG 2506/2507 6000 FEW030 SCT250
View NOTAMs / SUP AIP / TFR affecting this airport [VIEW]
Communications frequencies: [VIEW]

Runways:

RWY identifierQFULength (ft)Width (ft)SurfaceLDA (ft)
11114°9000148ASP
29294°9000148

Airport contact information

Address: Chandigarh India

Satellite view of VICG